Tracking 19847 objects as of 16-Sep-2019
HD Live streaming from Space Station
objects crossing your sky now

FENGYUN 1C DEB

Track FENGYUN 1C DEB now!
10-day predictions


NORAD ID: 37055
Int'l Code: 1999-025EEP
Perigee: 674.4 km
Apogee: 819.9 km
Inclination: 98.6 °
Period: 99.6 minutes
Semi major axis: 7118 km
RCS: 0.008 m2 (small)
Launch date: May 10, 1999
Source: People's Republic of China (PRC)
Launch site: Taiyaun Space Center, China (TSC)

Note: This is SATELLITE DEBRIS
aabbcc
Your satellite tracking list
Your tracking list is empty




NASA's NSSDC Master Catalog

Two Line Element Set (TLE):
1 37055U 99025EEP 19255.08563751  .00000890  00000-0  24962-3 0  9995
2 37055  98.6097 349.5398 0102211 299.7108  59.3940 14.45612028570572
Source of the keplerian elements: AFSPC